Find Starlink 35234

NORAD ID: 65601 Int'l Des: 2025-207 Owner: SPXS Country: US Constellation: starlink operational
LEOCIRCULARRETROGRADESSO

現在のビュー

3D地球を読み込み中...

About Starlink 35234

Starlink 35234 (NORAD 65601) is a starlink constellation satellite (v2 mini) launched Sep 13, 2025 by SPXS of US. It operates in LEO, CIRCULAR, RETROGRADE, SSO orbit with a mass of 575.00 kg.

Starlink 35234について

説明を読み込み中...

次回通過

Passes for default location (London). Set your location on the main map for personalized predictions.

高度履歴

Loading altitude history...

軌道要素

1 65601U 25207K 26200.17453433 .00001670 00000-0 11962-3 0 9990
2 65601 97.2842 265.9940 0001743 148.3281 211.8052 15.05657073 48043
Epoch: Jul 19, 2026 • Age: 12 hours

現在のステータス

高度 563.0 km
遠地点 / 近地点 N/A
速度 7.58 km/s
衛星直下点 -36.42°S, 101.07°W
打ち上げ日 Sep 13, 2025
運用期間 0.8 years
タイプ internet

技術仕様

分類 Payload
質量 575.00 kg
乾燥質量 530.00 kg
総質量 575.00 kg
長さ 0.30 m
直径 4.10 m
スパン 29.00 m
形状 Box + pan
製造者 SPXS
バスタイプ Starlink V2MO
フェーズステータス In Orbit
所有者/国 SPXS/US

Most Searched